{"data":{"norad_id":60912,"epoch":"2026-05-25T03:34:46.655904Z","epoch_age_seconds":72376,"freshness":"FRESH","line1":"1 60912U 24154K   26145.14915111  .00004760  00000+0  44132-4 0  9999","line2":"2 60912  53.1571 114.3108 0001169  82.9643 277.1507 15.69705028100518","mean_motion":15.69705028,"eccentricity":0.0001169,"inclination_deg":53.1571,"raan_deg":114.3108,"arg_perigee_deg":82.9643,"mean_anomaly_deg":277.1507,"bstar":4.4132e-5,"rev_number":10051,"period_min":91.736980790253,"perigee_km":358.95332048248,"apogee_km":360.52863635383,"semimajor_km":6737.8779784182,"source":"CELESTRAK","updated_at":"2026-05-25T13:38:19.313988Z"}}